UAL1150 KSFO-KLAS

Flight info

Callsign UAL1150
Flight time 1h 9m
Altitude 35000
Route WESLA5 NTELL Q174 FLCHR COKTL4
Aircraft B738/M-SDE2E3FGHIRWXY/LB1

Departure

Time 2026-05-04 17:41
Airport San Francisco International Airport (KSFO)

Arrival

Time 2026-05-04 18:50
Airport Harry Reid International Airport (KLAS)
Time Latitude Longitude Altitude Speed Heading
2026-05-04 17:12 37.61753 -122.38036 21 ft 0 kts 280°
2026-05-04 17:32 37.61748 -122.37998 23 ft 2 kts 280°
2026-05-04 17:33 37.61696 -122.37952 22 ft 4 kts 13°
2026-05-04 17:33 37.61670 -122.37962 23 ft 4 kts 23°
2026-05-04 17:34 37.61635 -122.37984 23 ft 0 kts 28°
2026-05-04 17:35 37.61641 -122.37980 21 ft 3 kts 30°
2026-05-04 17:36 37.61668 -122.37947 25 ft 8 kts 59°
2026-05-04 17:36 37.61675 -122.37852 21 ft 14 kts 93°
2026-05-04 17:36 37.61659 -122.37711 21 ft 19 kts 97°
2026-05-04 17:36 37.61641 -122.37528 21 ft 23 kts 98°
2026-05-04 17:37 37.61621 -122.37328 22 ft 23 kts 96°
2026-05-04 17:37 37.61566 -122.37146 21 ft 22 kts 118°
2026-05-04 17:37 37.61495 -122.36978 22 ft 21 kts 118°
2026-05-04 17:37 37.61403 -122.36836 21 ft 21 kts 134°
2026-05-04 17:38 37.61326 -122.36686 21 ft 20 kts 117°
2026-05-04 17:38 37.61262 -122.36531 23 ft 20 kts 118°
2026-05-04 17:38 37.61199 -122.36383 22 ft 19 kts 117°
2026-05-04 17:38 37.61139 -122.36238 21 ft 18 kts 117°
2026-05-04 17:39 37.61047 -122.35958 23 ft 17 kts 72°
2026-05-04 17:39 37.61142 -122.35899 21 ft 16 kts 349°
2026-05-04 17:39 37.61230 -122.35982 21 ft 16 kts 303°
2026-05-04 17:40 37.61300 -122.36147 21 ft 40 kts 299°
2026-05-04 17:40 37.61531 -122.36694 21 ft 100 kts 298°
2026-05-04 17:40 37.61936 -122.37657 26 ft 146 kts 298°
2026-05-04 17:40 37.62426 -122.38823 418 ft 153 kts 297°
2026-05-04 17:41 37.62925 -122.40075 852 ft 166 kts 297°
2026-05-04 17:41 37.63477 -122.41365 1467 ft 164 kts 297°
2026-05-04 17:41 37.64027 -122.42604 2120 ft 164 kts 298°
2026-05-04 17:41 37.64592 -122.43876 2715 ft 165 kts 298°
2026-05-04 17:42 37.65152 -122.45135 3353 ft 168 kts 297°
2026-05-04 17:42 37.65752 -122.46487 3654 ft 187 kts 298°
2026-05-04 17:42 37.66402 -122.47951 4130 ft 194 kts 297°
2026-05-04 17:42 37.66734 -122.49571 4647 ft 193 kts 261°
2026-05-04 17:43 37.66160 -122.51083 5073 ft 197 kts 223°
2026-05-04 17:43 37.64940 -122.51872 5352 ft 208 kts 188°
2026-05-04 17:43 37.63449 -122.51686 5507 ft 225 kts 167°
2026-05-04 17:43 37.61861 -122.51219 5677 ft 244 kts 167°
2026-05-04 17:44 37.60144 -122.50706 5888 ft 263 kts 167°
2026-05-04 17:44 37.58348 -122.50173 6536 ft 266 kts 166°
2026-05-04 17:44 37.56532 -122.49641 7174 ft 270 kts 166°
2026-05-04 17:44 37.54681 -122.49103 7795 ft 275 kts 166°
2026-05-04 17:45 37.52804 -122.48561 8472 ft 278 kts 166°
2026-05-04 17:45 37.50897 -122.48011 9124 ft 284 kts 166°
2026-05-04 17:45 37.49054 -122.47117 9762 ft 287 kts 142°
2026-05-04 17:45 37.47658 -122.45326 10375 ft 292 kts 126°
2026-05-04 17:46 37.46423 -122.43168 10564 ft 315 kts 123°
2026-05-04 17:46 37.45132 -122.40842 10938 ft 330 kts 124°
2026-05-04 17:46 37.43795 -122.38475 11643 ft 333 kts 124°
2026-05-04 17:46 37.42451 -122.36129 12345 ft 337 kts 124°
2026-05-04 17:47 37.41154 -122.33666 13044 ft 339 kts 114°
2026-05-04 17:47 37.40451 -122.30848 13905 ft 338 kts 103°
2026-05-04 17:47 37.39890 -122.27953 14566 ft 344 kts 102°
2026-05-04 17:47 37.39332 -122.25015 15335 ft 347 kts 102°
2026-05-04 17:48 37.38768 -122.22055 16159 ft 349 kts 102°
2026-05-04 17:48 37.38195 -122.19082 16991 ft 351 kts 102°
2026-05-04 17:48 37.37613 -122.16091 17788 ft 354 kts 102°
2026-05-04 17:48 37.37020 -122.13071 18510 ft 357 kts 102°
2026-05-04 17:49 37.36420 -122.10040 19118 ft 359 kts 102°
2026-05-04 17:49 37.35812 -122.06984 19738 ft 362 kts 102°
2026-05-04 17:49 37.35198 -122.03903 20305 ft 365 kts 102°
2026-05-04 17:49 37.34578 -122.00801 20904 ft 368 kts 102°
2026-05-04 17:50 37.33951 -121.97673 21471 ft 371 kts 102°
2026-05-04 17:50 37.33319 -121.94524 22068 ft 373 kts 102°
2026-05-04 17:50 37.32682 -121.91356 22667 ft 375 kts 101°
2026-05-04 17:50 37.32041 -121.88175 23239 ft 377 kts 101°
2026-05-04 17:51 37.31395 -121.84972 23776 ft 380 kts 101°
2026-05-04 17:51 37.30742 -121.81740 24213 ft 383 kts 101°
2026-05-04 17:51 37.30083 -121.78483 24601 ft 387 kts 102°
2026-05-04 17:51 37.29424 -121.75226 24932 ft 393 kts 102°
2026-05-04 17:52 37.28746 -121.71884 25331 ft 396 kts 102°
2026-05-04 17:52 37.28063 -121.68527 25756 ft 398 kts 102°
2026-05-04 17:52 37.27374 -121.65148 26180 ft 401 kts 102°
2026-05-04 17:52 37.26680 -121.61747 26571 ft 404 kts 102°
2026-05-04 17:53 37.25979 -121.58311 26859 ft 410 kts 103°
2026-05-04 17:53 37.25264 -121.54815 27097 ft 417 kts 103°
2026-05-04 17:53 37.24539 -121.51276 27450 ft 420 kts 103°
2026-05-04 17:53 37.23807 -121.47715 27802 ft 423 kts 103°
2026-05-04 17:54 37.23069 -121.44128 28185 ft 426 kts 103°
2026-05-04 17:54 37.22324 -121.40512 28527 ft 430 kts 104°
2026-05-04 17:54 37.21572 -121.36866 28882 ft 433 kts 104°
2026-05-04 17:54 37.20814 -121.33198 29189 ft 436 kts 104°
2026-05-04 17:55 37.20047 -121.29498 29491 ft 440 kts 104°
2026-05-04 17:55 37.19275 -121.25774 29776 ft 444 kts 104°
2026-05-04 17:55 37.18493 -121.22011 30018 ft 448 kts 105°
2026-05-04 17:55 37.17704 -121.18214 30217 ft 453 kts 105°
2026-05-04 17:56 37.16083 -121.10453 30488 ft 464 kts 106°
2026-05-04 17:56 37.15264 -121.06537 30812 ft 464 kts 106°
2026-05-04 17:56 37.14445 -121.02625 31159 ft 464 kts 107°
2026-05-04 17:57 37.13623 -120.98711 31489 ft 464 kts 107°
2026-05-04 17:57 37.12799 -120.94790 31763 ft 466 kts 107°
2026-05-04 17:57 37.11969 -120.90850 31943 ft 470 kts 108°
2026-05-04 17:57 37.11142 -120.86935 32175 ft 472 kts 108°
2026-05-04 17:58 37.10301 -120.82959 32538 ft 471 kts 108°
2026-05-04 17:58 37.09463 -120.78996 32895 ft 470 kts 109°
2026-05-04 17:58 37.08621 -120.75030 33087 ft 473 kts 110°
2026-05-04 17:58 37.07766 -120.71014 33113 ft 481 kts 110°
2026-05-04 17:59 37.06901 -120.66963 33348 ft 482 kts 110°
2026-05-04 17:59 37.06038 -120.62914 33734 ft 480 kts 110°
2026-05-04 17:59 37.04319 -120.54857 34369 ft 479 kts 110°
2026-05-04 18:00 37.03455 -120.50830 34605 ft 479 kts 111°
2026-05-04 18:00 37.02592 -120.46811 34875 ft 478 kts 111°
2026-05-04 18:00 37.01726 -120.42790 35081 ft 479 kts 111°
2026-05-04 18:01 36.99974 -120.34685 35050 ft 484 kts 112°
2026-05-04 18:01 36.98212 -120.26545 35070 ft 484 kts 112°
2026-05-04 18:02 36.95562 -120.14359 35078 ft 484 kts 112°
2026-05-04 18:02 36.93788 -120.06242 35065 ft 484 kts 113°
2026-05-04 18:03 36.92010 -119.98128 35074 ft 484 kts 113°
2026-05-04 18:03 36.90589 -119.89878 35036 ft 499 kts 95°
2026-05-04 18:04 36.91024 -119.85536 35065 ft 511 kts 77°
2026-05-04 18:04 36.92260 -119.81359 35074 ft 514 kts 71°
2026-05-04 18:05 36.96472 -119.69045 35068 ft 517 kts 70°
2026-05-04 18:05 36.99266 -119.60696 35076 ft 518 kts 71°
2026-05-04 18:06 37.03324 -119.48213 35049 ft 519 kts 71°
2026-05-04 18:06 37.06029 -119.39836 35045 ft 519 kts 71°
2026-05-04 18:07 37.08730 -119.31462 35016 ft 518 kts 71°
2026-05-04 18:07 37.11420 -119.23106 34980 ft 516 kts 71°
2026-05-04 18:08 37.14098 -119.14767 35009 ft 515 kts 71°
2026-05-04 18:08 37.16759 -119.06451 34972 ft 514 kts 71°
2026-05-04 18:09 37.22049 -118.89848 34895 ft 512 kts 71°
2026-05-04 18:10 37.24678 -118.81560 34907 ft 511 kts 71°
2026-05-04 18:10 37.27234 -118.73240 34868 ft 510 kts 77°
2026-05-04 18:11 37.28061 -118.68936 34864 ft 504 kts 88°
2026-05-04 18:11 37.28432 -118.64579 34824 ft 501 kts 91°
2026-05-04 18:11 37.29003 -118.55948 34868 ft 500 kts 91°
2026-05-04 18:12 37.29599 -118.47252 34870 ft 499 kts 90°
2026-05-04 18:12 37.30239 -118.38562 34888 ft 500 kts 90°
2026-05-04 18:13 37.30891 -118.29836 34888 ft 503 kts 90°
2026-05-04 18:14 37.31865 -118.16626 34852 ft 509 kts 90°
2026-05-04 18:14 37.32510 -118.07761 34761 ft 510 kts 90°
2026-05-04 18:15 37.33777 -117.90040 34779 ft 507 kts 90°
2026-05-04 18:16 37.34398 -117.81223 34769 ft 506 kts 90°
2026-05-04 18:16 37.35004 -117.72525 34473 ft 498 kts 90°
2026-05-04 18:17 37.35596 -117.63941 34004 ft 489 kts 90°
2026-05-04 18:17 37.35882 -117.59706 33740 ft 484 kts 90°
2026-05-04 18:17 37.36453 -117.51320 32950 ft 478 kts 90°
2026-05-04 18:18 37.36734 -117.47164 32555 ft 475 kts 91°
2026-05-04 18:18 37.37009 -117.43039 32191 ft 472 kts 90°
2026-05-04 18:18 37.37282 -117.38944 31833 ft 469 kts 91°
2026-05-04 18:18 37.37552 -117.34866 31478 ft 467 kts 91°
2026-05-04 18:19 37.37140 -117.26991 30750 ft 437 kts 119°
2026-05-04 18:19 37.35901 -117.23621 30532 ft 414 kts 133°
2026-05-04 18:19 37.34176 -117.20828 30328 ft 401 kts 144°
2026-05-04 18:20 37.32246 -117.18233 30133 ft 412 kts 144°
2026-05-04 18:20 37.30289 -117.15570 29854 ft 417 kts 143°
2026-05-04 18:20 37.28341 -117.12878 29604 ft 415 kts 143°
2026-05-04 18:20 37.26417 -117.10196 29357 ft 412 kts 142°
2026-05-04 18:21 37.24514 -117.07536 29128 ft 408 kts 142°
2026-05-04 18:21 37.22625 -117.04897 28883 ft 405 kts 142°
2026-05-04 18:21 37.21381 -117.03162 28766 ft 402 kts 143°
2026-05-04 18:21 37.19518 -117.00568 28544 ft 399 kts 143°
2026-05-04 18:22 37.17663 -116.97990 28329 ft 397 kts 142°
2026-05-04 18:22 37.15819 -116.95430 28126 ft 395 kts 142°
2026-05-04 18:22 37.13983 -116.92882 27900 ft 393 kts 142°
2026-05-04 18:22 37.12155 -116.90348 27690 ft 391 kts 142°
2026-05-04 18:23 37.10329 -116.87832 27487 ft 388 kts 144°
2026-05-04 18:23 37.08318 -116.85704 27253 ft 373 kts 155°
2026-05-04 18:23 37.06194 -116.83881 27053 ft 369 kts 157°
2026-05-04 18:23 37.04054 -116.82116 26887 ft 366 kts 158°
2026-05-04 18:24 37.01932 -116.80369 26745 ft 365 kts 157°
2026-05-04 18:24 36.99819 -116.78611 26550 ft 365 kts 157°
2026-05-04 18:24 36.97713 -116.76842 26354 ft 365 kts 156°
2026-05-04 18:24 36.95611 -116.75061 26168 ft 365 kts 156°
2026-05-04 18:25 36.93507 -116.73271 25978 ft 366 kts 156°
2026-05-04 18:25 36.91405 -116.71478 25775 ft 366 kts 156°
2026-05-04 18:25 36.89305 -116.69684 25577 ft 365 kts 155°
2026-05-04 18:25 36.87207 -116.67891 25367 ft 365 kts 156°
2026-05-04 18:26 36.85116 -116.66104 25165 ft 364 kts 156°
2026-05-04 18:26 36.83028 -116.64321 24960 ft 363 kts 156°
2026-05-04 18:26 36.80957 -116.62554 24771 ft 359 kts 156°
2026-05-04 18:26 36.78898 -116.60799 24594 ft 357 kts 156°
2026-05-04 18:27 36.76849 -116.59055 24401 ft 356 kts 156°
2026-05-04 18:27 36.74807 -116.57320 24200 ft 355 kts 156°
2026-05-04 18:27 36.72793 -116.55608 23986 ft 354 kts 155°
2026-05-04 18:27 36.70760 -116.53881 23805 ft 354 kts 155°
2026-05-04 18:28 36.68730 -116.52157 23606 ft 353 kts 156°
2026-05-04 18:28 36.66701 -116.50436 23428 ft 353 kts 155°
2026-05-04 18:28 36.64703 -116.48641 23196 ft 360 kts 147°
2026-05-04 18:28 36.62948 -116.46358 22998 ft 367 kts 141°
2026-05-04 18:29 36.61284 -116.43940 22774 ft 368 kts 139°
2026-05-04 18:29 36.59634 -116.41509 22579 ft 367 kts 139°
2026-05-04 18:29 36.57981 -116.39094 22373 ft 366 kts 140°
2026-05-04 18:29 36.56322 -116.36704 22171 ft 364 kts 140°
2026-05-04 18:30 36.53004 -116.31988 21761 ft 360 kts 140°
2026-05-04 18:30 36.51350 -116.29653 21570 ft 359 kts 140°
2026-05-04 18:30 36.49703 -116.27333 21378 ft 357 kts 140°
2026-05-04 18:31 36.48064 -116.25025 21174 ft 355 kts 140°
2026-05-04 18:31 36.46432 -116.22728 20976 ft 354 kts 140°
2026-05-04 18:31 36.44803 -116.20438 20760 ft 354 kts 140°
2026-05-04 18:31 36.43167 -116.18143 20480 ft 355 kts 140°
2026-05-04 18:32 36.41525 -116.15840 20199 ft 356 kts 140°
2026-05-04 18:32 36.39892 -116.13547 19927 ft 354 kts 140°
2026-05-04 18:32 36.38263 -116.11262 19645 ft 352 kts 139°
2026-05-04 18:32 36.36652 -116.09000 19347 ft 348 kts 140°
2026-05-04 18:33 36.35056 -116.06761 19055 ft 344 kts 140°
2026-05-04 18:33 36.33478 -116.04551 18807 ft 339 kts 140°
2026-05-04 18:33 36.31918 -116.02369 18555 ft 337 kts 140°
2026-05-04 18:33 36.30367 -116.00203 18291 ft 335 kts 140°
2026-05-04 18:34 36.28822 -115.98045 18000 ft 333 kts 139°
2026-05-04 18:34 36.27286 -115.95902 17697 ft 331 kts 139°
2026-05-04 18:34 36.25760 -115.93774 17403 ft 329 kts 139°
2026-05-04 18:34 36.24271 -115.91628 17139 ft 328 kts 136°
2026-05-04 18:35 36.22863 -115.89409 16886 ft 327 kts 134°
2026-05-04 18:35 36.21483 -115.87183 16625 ft 325 kts 134°
2026-05-04 18:35 36.20112 -115.84974 16380 ft 323 kts 134°
2026-05-04 18:35 36.18740 -115.82780 16108 ft 321 kts 134°
2026-05-04 18:36 36.17371 -115.80605 15866 ft 319 kts 134°
2026-05-04 18:36 36.16008 -115.78449 15613 ft 318 kts 134°
2026-05-04 18:36 36.14644 -115.76296 15349 ft 317 kts 133°
2026-05-04 18:36 36.13439 -115.74011 15098 ft 321 kts 118°
2026-05-04 18:37 36.12621 -115.71436 14868 ft 322 kts 114°
2026-05-04 18:37 36.11870 -115.68869 14600 ft 321 kts 114°
2026-05-04 18:37 36.11101 -115.66241 14348 ft 320 kts 114°
2026-05-04 18:37 36.10343 -115.63692 14080 ft 320 kts 114°
2026-05-04 18:38 36.09567 -115.61120 13831 ft 319 kts 114°
2026-05-04 18:38 36.08786 -115.58560 13565 ft 317 kts 114°
2026-05-04 18:38 36.08007 -115.56020 13277 ft 314 kts 114°
2026-05-04 18:38 36.07235 -115.53512 13017 ft 310 kts 114°
2026-05-04 18:39 36.06469 -115.51033 12756 ft 307 kts 115°
2026-05-04 18:39 36.05711 -115.48580 12500 ft 304 kts 115°
2026-05-04 18:39 36.04957 -115.46145 12254 ft 303 kts 115°
2026-05-04 18:39 36.04207 -115.43725 12023 ft 301 kts 115°
2026-05-04 18:40 36.03453 -115.41302 11731 ft 304 kts 116°
2026-05-04 18:40 36.02694 -115.38862 11421 ft 304 kts 115°
2026-05-04 18:40 36.01939 -115.36430 11105 ft 303 kts 115°
2026-05-04 18:40 36.01429 -115.33903 10854 ft 306 kts 100°
2026-05-04 18:41 36.01308 -115.31298 10656 ft 302 kts 97°
2026-05-04 18:41 36.01224 -115.28720 10475 ft 298 kts 96°
2026-05-04 18:41 36.01134 -115.26178 10269 ft 294 kts 97°
2026-05-04 18:41 36.01031 -115.23672 10072 ft 290 kts 98°
2026-05-04 18:42 36.00920 -115.21198 9867 ft 286 kts 98°
2026-05-04 18:42 36.00803 -115.18761 9655 ft 282 kts 98°
2026-05-04 18:42 36.00685 -115.16361 9452 ft 277 kts 98°
2026-05-04 18:42 36.00567 -115.14002 9259 ft 273 kts 98°
2026-05-04 18:43 36.00450 -115.11682 9061 ft 269 kts 98°
2026-05-04 18:43 36.00334 -115.09392 8831 ft 266 kts 98°
2026-05-04 18:43 36.00218 -115.07121 8599 ft 264 kts 99°
2026-05-04 18:43 36.00103 -115.04873 8356 ft 261 kts 98°
2026-05-04 18:44 35.99988 -115.02646 8146 ft 259 kts 98°
2026-05-04 18:44 35.99915 -115.01178 7949 ft 260 kts 97°
2026-05-04 18:44 35.99880 -114.98180 7453 ft 262 kts 96°
2026-05-04 18:44 35.99875 -114.95933 7142 ft 262 kts 95°
2026-05-04 18:45 35.99983 -114.93673 6805 ft 267 kts 79°
2026-05-04 18:45 36.00899 -114.91685 6445 ft 272 kts 46°
2026-05-04 18:45 36.02477 -114.90442 6111 ft 272 kts 17°
2026-05-04 18:45 36.04327 -114.90314 5747 ft 265 kts 345°
2026-05-04 18:46 36.06009 -114.91125 5434 ft 257 kts 325°
2026-05-04 18:46 36.07272 -114.92573 5062 ft 243 kts 291°
2026-05-04 18:46 36.07552 -114.94508 4808 ft 223 kts 262°
2026-05-04 18:46 36.07466 -114.96398 4541 ft 219 kts 263°
2026-05-04 18:47 36.07418 -114.98243 4326 ft 210 kts 262°
2026-05-04 18:47 36.07389 -115.00024 4065 ft 204 kts 265°
2026-05-04 18:47 36.07384 -115.01747 3825 ft 196 kts 265°
2026-05-04 18:47 36.07381 -115.03388 3568 ft 185 kts 265°
2026-05-04 18:48 36.07378 -115.04914 3330 ft 170 kts 266°
2026-05-04 18:48 36.07375 -115.06295 3144 ft 156 kts 266°
2026-05-04 18:48 36.07372 -115.07622 2936 ft 159 kts 265°
2026-05-04 18:48 36.07371 -115.08992 2726 ft 159 kts 262°
2026-05-04 18:49 36.07367 -115.10367 2488 ft 159 kts 264°
2026-05-04 18:49 36.07368 -115.11746 2277 ft 162 kts 266°
2026-05-04 18:49 36.07373 -115.13149 2082 ft 164 kts 262°
2026-05-04 18:49 36.07356 -115.14416 2089 ft 121 kts 273°
2026-05-04 18:50 36.07365 -115.15196 2099 ft 60 kts 275°
2026-05-04 18:50 36.07454 -115.15476 2105 ft 25 kts 302°
2026-05-04 18:50 36.07517 -115.15589 2107 ft 9 kts 312°
2026-05-04 18:50 36.07536 -115.15616 2110 ft 0 kts 311°